Preview of NWS' New Version of Forecast
This preview is not operational and should not be used for support decisions.

Regional Weather Roundup (RWR)

Issued by National Weather Service (NWS)

                            
000
ASUS44 KMEG 220010
RWRTN 
TENNESSEE HOURLY STATE WEATHER ROUNDUP
NATIONAL WEATHER SERVICE MEMPHIS TN
700 PM CDT SUN APR 21 2019

TNZ002-004-019-021-049-052-054-088>092-220100-
WEST TENNESSEE
  
CITY           SKY/WX    TMP DP  RH WIND       PRES   REMARKS
MEMPHIS INTL   FAIR      72  49  44 S10       30.06S                  
NWS MEMPHIS      N/A     76 N/A N/A MISG        N/A                   
JACKSON        FAIR      74  49  41 CALM      30.06F                  
DYERSBURG      FAIR      74  53  48 W3        30.06S                  
SOMERVILLE     CLEAR     75  45  33 SW3       30.05S                  
COVINGTON      CLEAR     75  48  38 SW6       30.05S                  
UNION CITY     CLEAR     72  50  46 S6        30.04S                  
BOLIVAR        CLEAR     75  45  33 SW5       30.06R                  
PARIS          CLEAR     73  43  33 S3        30.06S                  
HUNTINGDON     CLEAR     75  43  31 CALM      30.06S                  
LEXINGTON        N/A     73  45  35 CALM      30.06S                  
SELMER         CLEAR     75  46  35 S3        30.06S                  
SAVANNAH       CLEAR     73  54  49 CALM      30.07R                  
$$

TNZ008-025-027-028-033-062-065-066-220100-
NORTH MIDDLE TENNESSEE
  
CITY           SKY/WX    TMP DP  RH WIND       PRES   REMARKS
NASHVILLE      FAIR      69  35  28 E7        30.11S                  
DICKSON        CLEAR     73  30  20 CALM      30.08S                  
PORTLAND       CLEAR     68  32  26 CALM      30.11R                  
CLARKSVILLE    FAIR      68  39  34 E8        30.08S                  
LEBANON        CLEAR     70  37  30 CALM      30.10R                  
SMYRNA         FAIR      70  36  28 E5        30.12S                  
MURFREESBORO   CLEAR     70  32  24 E5        30.10R                  
COOKEVILLE     CLEAR     64  41  42 CALM      30.13R                  
LIVINGSTON     CLEAR     63  32  31 CALM      30.13R                  
GALLATIN       CLEAR     70  39  32 CALM      30.14R                  
CROSSVILLE     FAIR      62  30  29 NW5       30.15R                  
ROCKWOOD       CLEAR     63  28  27 N5        30.13R                  
$$

TNZ061-075-076-078-094-096-097-220100-
SOUTH MIDDLE TENNESSEE
  
CITY           SKY/WX    TMP DP  RH WIND       PRES   REMARKS
LAWRENCEBURG   CLEAR     72  43  35 CALM      30.09R                  
LEWISBURG      CLEAR     72  36  26 CALM      30.10R                  
FAYETTEVILLE   CLEAR     70  43  37 SE3       30.11R                  
TULLAHOMA      CLEAR     68  32  26 NE5       30.11S                  
WINCHESTER     CLEAR     68  37  32 NE5       30.12R                  
MCMINNVILLE    CLEAR     68  32  26 CALM      30.13R                  
COLUMBIA       CLEAR     72  37  28 E5        30.07S                  
SHELBYVILLE    CLEAR     68  39  34 CALM      30.11S                  
$$

TNZ017-018-042-046-047-220100-
NORTHEAST TENNESSEE
  
CITY           SKY/WX    TMP DP  RH WIND       PRES   REMARKS
TRI CITIES     FAIR      55  43  63 SW6       30.14S                  
ELIZABETHTON   CLOUDY    55  43  62 W3        30.14S                  
GREENEVILLE    CLEAR     55  43  62 CALM      30.14S                  
$$

TNZ012-013-036-069-073-074-220100-
CENTRAL EAST TENNESSEE
  
CITY           SKY/WX    TMP DP  RH WIND       PRES   REMARKS
KNOXVILLE      FAIR      63  42  46 E3        30.10S                  
OAK RIDGE      FAIR      67  41  38 CALM      30.12R                  
DOWNTOWN KNOXV CLEAR     61  48  63 CALM      30.12R                  
GATLINBURG     CLEAR     63  43  48 CALM      30.11S                  
MORRISTOWN     CLEAR     57  45  62 SE5       30.12S                  
JACKSBORO      CLEAR     64  30  27 CALM      30.15R                  
$$

TNZ083-085-099-220100-
SOUTHEAST TENNESSEE
  
CITY           SKY/WX    TMP DP  RH WIND       PRES   REMARKS
CHATTANOOGA    FAIR      70  32  24 NE6       30.11R                  
DAYTON         CLEAR     68  34  28 W6        30.11R                  
$$

SKY/WX REPORTED AS FAIR MEANS FEW OR NO CLOUDS BELOW
12 THOUSAND FEET.